TimeMST,TemperatureF,Dew PointF,Humidity,Sea Level PressureIn,VisibilityMPH,Wind Direction,Wind SpeedMPH,Gust SpeedMPH,PrecipitationIn,Events,Conditions,WindDirDegrees,DateUTC
12:15 AM,17.6,12.2,79,30.43,10.0,Calm,Calm,-,N/A,,Clear,0,2012-11-14 07:15:00
12:35 AM,15.8,10.4,79,30.43,10.0,NE,4.6,-,N/A,,Clear,50,2012-11-14 07:35:00
12:55 AM,15.8,10.4,79,30.43,10.0,Calm,Calm,-,N/A,,Clear,0,2012-11-14 07:55:00
1:15 AM,14.0,8.6,79,30.43,10.0,Calm,Calm,-,N/A,,Clear,0,2012-11-14 08:15:00
1:35 AM,15.8,8.6,73,30.43,10.0,Calm,Calm,-,N/A,,Clear,0,2012-11-14 08:35:00
1:55 AM,12.2,5.0,73,30.44,10.0,Calm,Calm,-,N/A,,Clear,0,2012-11-14 08:55:00
2:15 AM,12.2,8.6,85,30.44,10.0,Calm,Calm,-,N/A,,Clear,0,2012-11-14 09:15:00
2:35 AM,12.2,8.6,85,30.44,10.0,Calm,Calm,-,N/A,,Clear,0,2012-11-14 09:35:00
2:55 AM,12.2,6.8,79,30.44,10.0,Calm,Calm,-,N/A,,Clear,0,2012-11-14 09:55:00
3:15 AM,12.2,8.6,85,30.43,10.0,Calm,Calm,-,N/A,,Clear,0,2012-11-14 10:15:00
3:35 AM,12.2,6.8,79,30.43,10.0,East,3.5,-,N/A,,Clear,80,2012-11-14 10:35:00
3:55 AM,10.4,6.8,85,30.43,10.0,Calm,Calm,-,N/A,,Clear,0,2012-11-14 10:55:00
4:15 AM,10.4,6.8,85,30.43,10.0,Calm,Calm,-,N/A,,Clear,0,2012-11-14 11:15:00
4:35 AM,12.2,6.8,79,30.43,10.0,Calm,Calm,-,N/A,,Clear,0,2012-11-14 11:35:00
4:55 AM,12.2,6.8,79,30.44,10.0,Calm,Calm,-,N/A,,Partly Cloudy,0,2012-11-14 11:55:00
5:15 AM,12.2,8.6,85,30.44,10.0,ENE,3.5,-,N/A,,Clear,60,2012-11-14 12:15:00
5:35 AM,12.2,3.2,67,30.44,10.0,ENE,3.5,-,N/A,,Clear,60,2012-11-14 12:35:00
5:55 AM,10.4,6.8,85,30.44,10.0,Calm,Calm,-,N/A,,Clear,0,2012-11-14 12:55:00
6:15 AM,10.4,5.0,79,30.44,10.0,Calm,Calm,-,N/A,,Clear,0,2012-11-14 13:15:00
6:35 AM,10.4,5.0,79,30.45,10.0,Calm,Calm,-,N/A,,Clear,0,2012-11-14 13:35:00
6:55 AM,10.4,3.2,73,30.45,10.0,Calm,Calm,-,N/A,,Clear,0,2012-11-14 13:55:00
7:15 AM,8.6,3.2,79,30.46,10.0,Calm,Calm,-,N/A,,Clear,0,2012-11-14 14:15:00
7:35 AM,10.4,8.6,92,30.46,10.0,Calm,Calm,-,N/A,,Clear,0,2012-11-14 14:35:00
8:15 AM,14.0,8.6,79,30.47,10.0,Calm,Calm,-,N/A,,Clear,0,2012-11-14 15:15:00
8:55 AM,17.6,10.4,73,30.47,10.0,Calm,Calm,-,N/A,,Clear,0,2012-11-14 15:55:00
9:15 AM,17.6,10.4,73,30.47,10.0,Calm,Calm,-,N/A,,Clear,0,2012-11-14 16:15:00
9:35 AM,21.2,14.0,74,30.46,10.0,Calm,Calm,-,N/A,,Clear,0,2012-11-14 16:35:00
9:55 AM,23.0,12.2,63,30.45,10.0,Calm,Calm,-,N/A,,Clear,0,2012-11-14 16:55:00
10:15 AM,24.8,10.4,54,30.44,10.0,Calm,Calm,-,N/A,,Clear,0,2012-11-14 17:15:00
10:35 AM,26.6,15.8,64,30.44,10.0,Calm,Calm,-,N/A,,Clear,0,2012-11-14 17:35:00
10:55 AM,26.6,12.2,55,30.43,10.0,Calm,Calm,-,N/A,,Clear,0,2012-11-14 17:55:00
12:15 PM,33.8,14.0,44,30.37,10.0,Calm,Calm,-,N/A,,Clear,0,2012-11-14 19:15:00
12:35 PM,35.6,14.0,41,30.36,10.0,Calm,Calm,-,N/A,,Clear,0,2012-11-14 19:35:00
12:55 PM,35.6,14.0,41,30.35,10.0,Calm,Calm,-,N/A,,Clear,0,2012-11-14 19:55:00
1:15 PM,37.4,15.8,41,30.34,10.0,Calm,Calm,-,N/A,,Clear,0,2012-11-14 20:15:00
1:35 PM,37.4,15.8,41,30.33,10.0,Calm,Calm,-,N/A,,Clear,0,2012-11-14 20:35:00
1:55 PM,39.2,15.8,39,30.32,10.0,Calm,Calm,-,N/A,,Clear,0,2012-11-14 20:55:00
2:15 PM,39.2,15.8,39,30.31,10.0,Calm,Calm,-,N/A,,Clear,0,2012-11-14 21:15:00
2:35 PM,39.2,14.0,36,30.30,10.0,Calm,Calm,-,N/A,,Clear,0,2012-11-14 21:35:00
2:55 PM,41.0,15.8,36,30.30,10.0,Calm,Calm,-,N/A,,Clear,0,2012-11-14 21:55:00
3:15 PM,42.8,12.2,29,30.29,10.0,Calm,Calm,-,N/A,,Clear,0,2012-11-14 22:15:00
3:35 PM,42.8,12.2,29,30.28,10.0,Calm,Calm,-,N/A,,Clear,0,2012-11-14 22:35:00
3:55 PM,42.8,12.2,29,30.28,10.0,SSW,3.5,-,N/A,,Clear,200,2012-11-14 22:55:00
4:15 PM,42.8,12.2,29,30.28,10.0,Calm,Calm,-,N/A,,Clear,0,2012-11-14 23:15:00
4:35 PM,42.8,12.2,29,30.28,10.0,Calm,Calm,-,N/A,,Clear,0,2012-11-14 23:35:00
4:55 PM,41.0,15.8,36,30.28,10.0,Calm,Calm,-,N/A,,Clear,0,2012-11-14 23:55:00
5:15 PM,37.4,15.8,41,30.29,10.0,Calm,Calm,-,N/A,,Clear,0,2012-11-15 00:15:00
5:35 PM,35.6,10.4,35,30.28,10.0,Calm,Calm,-,N/A,,Clear,0,2012-11-15 00:35:00
5:55 PM,33.8,12.2,41,30.29,10.0,NNW,6.9,-,N/A,,Clear,340,2012-11-15 00:55:00
6:15 PM,30.2,12.2,47,30.29,10.0,North,6.9,-,N/A,,Clear,350,2012-11-15 01:15:00
6:35 PM,30.2,12.2,47,30.30,10.0,North,3.5,-,N/A,,Partly Cloudy,10,2012-11-15 01:35:00
6:55 PM,26.6,10.4,51,30.30,10.0,East,3.5,-,N/A,,Clear,100,2012-11-15 01:55:00
7:15 PM,28.4,15.8,59,30.31,10.0,Calm,Calm,-,N/A,,Clear,0,2012-11-15 02:15:00
7:35 PM,26.6,12.2,55,30.31,10.0,Calm,Calm,-,N/A,,Clear,0,2012-11-15 02:35:00
7:55 PM,24.8,10.4,54,30.32,10.0,East,3.5,-,N/A,,Clear,80,2012-11-15 02:55:00
8:15 PM,24.8,12.2,59,30.32,10.0,Calm,Calm,-,N/A,,Partly Cloudy,0,2012-11-15 03:15:00
8:35 PM,24.8,12.2,59,30.32,10.0,Calm,Calm,-,N/A,,Mostly Cloudy,0,2012-11-15 03:35:00
8:55 PM,21.2,15.8,80,30.32,10.0,Calm,Calm,-,N/A,,Partly Cloudy,0,2012-11-15 03:55:00
9:15 PM,21.2,10.4,63,30.32,10.0,Calm,Calm,-,N/A,,Clear,0,2012-11-15 04:15:00
9:35 PM,21.2,12.2,68,30.32,10.0,Calm,Calm,-,N/A,,Clear,0,2012-11-15 04:35:00
9:55 PM,21.2,12.2,68,30.32,10.0,Calm,Calm,-,N/A,,Clear,0,2012-11-15 04:55:00
10:15 PM,19.4,10.4,68,30.32,10.0,ENE,5.8,-,N/A,,Clear,70,2012-11-15 05:15:00
10:35 PM,19.4,12.2,74,30.33,10.0,Calm,Calm,-,N/A,,Partly Cloudy,0,2012-11-15 05:35:00
10:55 PM,21.2,12.2,68,30.33,10.0,Calm,Calm,-,N/A,,Partly Cloudy,0,2012-11-15 05:55:00
11:15 PM,19.4,12.2,74,30.33,10.0,ENE,3.5,-,N/A,,Clear,70,2012-11-15 06:15:00
11:35 PM,19.4,10.4,68,30.34,10.0,NE,4.6,-,N/A,,Mostly Cloudy,50,2012-11-15 06:35:00
11:55 PM,19.4,10.4,68,30.34,10.0,Calm,Calm,-,N/A,,Mostly Cloudy,0,2012-11-15 06:55:00